Hillsdale, MI

10:49 AM EST on November 12, 2019 (GMT -0500)
Hillsdale Municipal

Weather History for KJYM - September, 2019

Change the Weather History Date:

Monday, September 2, 2019

  Actual Average Record
Temperature  
Mean Temperature 69 °F -  
Max Temperature 77 °F 78 °F 97 °F (1953)
Min Temperature 59 °F 53 °F 40 °F (1955)
Cooling Degree Days 4    
Growing Degree Days 19 (Base 50)    
Moisture  
Dew Point 62 °F    
Average Humidity 84    
Maximum Humidity 97    
Minimum Humidity 62    
Precipitation  
Precipitation 0.00 in - - ()
Sea Level Pressure  
Sea Level Pressure 30.08 in    
Wind  
Wind Speed 3 mph ()    
Max Wind Speed 13 mph    
Max Gust Speed 21 mph    
Visibility 7.6 miles    
Events      
Averages and records for this station are not official NWS values.
T = Trace of Precipitation, MM = Missing Value Source: Averaged Metar Reports

Daily Weather History Graph

Daily Weather History Graph

Search for Another Location

Airport or City:

Astronomy

Sep. 02, 2019 Rise Set
Actual Time 7:04 AM EDT 8:10 PM EDT
Civil Twilight 6:36 AM EDT 8:39 PM EDT
Nautical Twilight 6:01 AM EDT 9:13 PM EDT
Astronomical Twilight 5:26 AM EDT 9:48 PM EDT
Moon 10:49 AM EDT (9/2) 10:27 PM EDT (9/2)
Length of Visible Light 14h 02m
Length of Day
13h 05m
Waxing Crescent, 15% of the Moon is Illuminated
Sep 2
Waxing Crescent
Sep 5
First Quarter
Sep 14
Full
Sep 21
Last Quarter
Sep 28
New

Hourly Weather History & Observations

Time (EDT) Temp. Dew Point Humidity Pressure Visibility Wind Dir Wind Speed Gust Speed Precip Events Conditions
12:15 AM 63.1 °F 61.7 °F 95% 30.06 in 10.0 mi Calm Calm - N/A   Overcast
12:20 AM 63.1 °F 61.7 °F 95% 30.06 in 10.0 mi Calm Calm - N/A   Overcast
12:38 AM 62.8 °F 61.3 °F 95% 30.06 in 10.0 mi Calm Calm - N/A   Overcast
12:56 AM 63.1 °F 61.7 °F 95% 30.06 in 7.0 mi Calm Calm - N/A   Overcast
1:15 AM 63.1 °F 61.7 °F 95% 30.07 in 7.0 mi Calm Calm - N/A   Overcast
1:35 AM 62.6 °F 61.3 °F 96% 30.07 in 7.0 mi Calm Calm - N/A   Overcast
1:36 AM 62.8 °F 61.3 °F 95% 30.07 in 7.0 mi Calm Calm - N/A   Overcast
1:59 AM 63.5 °F 62.1 °F 95% 30.07 in 7.0 mi Calm Calm - N/A   Overcast
2:17 AM 63.9 °F 62.2 °F 94% 30.07 in 7.0 mi Calm Calm - N/A   Overcast
2:35 AM 63.9 °F 62.2 °F 94% 30.07 in 7.0 mi Calm Calm - N/A   Overcast
2:55 AM 63.9 °F 62.4 °F 95% 30.07 in 4.0 mi Calm Calm - N/A   Light Drizzle
2:56 AM 63.9 °F 62.4 °F 95% 30.07 in 4.0 mi Calm Calm - N/A   Light Drizzle
3:15 AM 63.9 °F 62.6 °F 96% 30.06 in 4.0 mi West 3.5 mph - N/A   Overcast
3:20 AM 63.9 °F 62.6 °F 96% 30.06 in 4.0 mi West 3.5 mph - N/A   Overcast
3:38 AM 64.0 °F 62.6 °F 95% 30.06 in 4.0 mi West 3.5 mph - N/A   Overcast
3:56 AM 64.2 °F 62.8 °F 95% 30.06 in 4.0 mi Calm Calm - N/A   Overcast
4:15 AM 64.4 °F 62.8 °F 94% 30.06 in 4.0 mi West 3.5 mph - N/A   Overcast
4:35 AM 64.2 °F 63.0 °F 96% 30.06 in 3.0 mi Calm Calm - N/A   Overcast
4:36 AM 64.2 °F 63.0 °F 96% 30.06 in 3.0 mi Calm Calm - N/A   Overcast
4:59 AM 64.0 °F 62.6 °F 95% 30.07 in 2.5 mi West 3.5 mph - N/A   Overcast
5:17 AM 64.2 °F 62.8 °F 95% 30.07 in 3.0 mi WNW 3.5 mph - N/A   Overcast
5:35 AM 63.9 °F 62.6 °F 96% 30.07 in 3.0 mi West 3.5 mph - N/A   Overcast
5:55 AM 63.3 °F 61.9 °F 95% 30.08 in 2.5 mi West 4.6 mph - N/A   Overcast
6:15 AM 62.8 °F 61.7 °F 96% 30.07 in 2.5 mi West 4.6 mph - N/A   Overcast
6:19 AM 62.8 °F 61.7 °F 96% 30.07 in 2.5 mi West 5.8 mph - N/A   Overcast
6:38 AM 63.5 °F 62.6 °F 97% 30.08 in 3.0 mi West 3.5 mph - N/A   Overcast
6:56 AM 63.5 °F 62.2 °F 96% 30.08 in 4.0 mi WNW 4.6 mph - N/A   Overcast
7:15 AM 62.4 °F 61.0 °F 95% 30.09 in 3.0 mi WNW 3.5 mph - N/A   Mostly Cloudy
7:35 AM 61.3 °F 60.1 °F 96% 30.10 in 2.5 mi West 3.5 mph - N/A   Scattered Clouds
7:59 AM 62.6 °F 61.0 °F 94% 30.10 in 4.0 mi WNW 6.9 mph - N/A   Scattered Clouds
8:17 AM 62.4 °F 61.0 °F 95% 30.10 in 4.0 mi WNW 6.9 mph - N/A   Overcast
8:55 AM 62.4 °F 60.8 °F 94% 30.11 in 4.0 mi NW 5.8 mph - N/A   Overcast
9:15 AM 62.8 °F 61.0 °F 94% 30.11 in 4.0 mi NW 6.9 mph - N/A   Overcast
9:20 AM 62.8 °F 60.8 °F 93% 30.12 in 5.0 mi WNW 6.9 mph - N/A   Overcast
9:38 AM 63.3 °F 60.4 °F 90% 30.12 in 7.0 mi NW 8.1 mph - N/A   Overcast
9:56 AM 63.7 °F 60.1 °F 88% 30.12 in 7.0 mi West 4.6 mph - N/A   Overcast
10:15 AM 65.7 °F 60.4 °F 83% 30.12 in 10.0 mi West 4.6 mph - N/A   Scattered Clouds
10:35 AM 67.5 °F 60.4 °F 78% 30.12 in 10.0 mi West 5.8 mph - N/A   Clear
10:59 AM 69.3 °F 60.6 °F 74% 30.12 in 10.0 mi WNW 5.8 mph - N/A   Clear
11:17 AM 70.9 °F 61.7 °F 73% 30.12 in 10.0 mi West 5.8 mph - N/A   Clear
11:35 AM 71.6 °F 61.9 °F 71% 30.11 in 10.0 mi WNW 8.1 mph - N/A   Clear
11:55 AM 72.0 °F 61.7 °F 70% 30.11 in 10.0 mi WNW 5.8 mph - N/A   Clear
12:19 PM 72.9 °F 62.2 °F 69% 30.11 in 10.0 mi West 6.9 mph - N/A   Scattered Clouds
12:37 PM 74.1 °F 63.3 °F 69% 30.11 in 10.0 mi WNW 3.5 mph - N/A   Mostly Cloudy
12:55 PM 74.1 °F 63.1 °F 68% 30.11 in 10.0 mi WNW 6.9 mph - N/A   Mostly Cloudy
1:15 PM 73.4 °F 62.8 °F 69% 30.10 in 10.0 mi WNW 8.1 mph - N/A   Mostly Cloudy
1:35 PM 73.9 °F 63.1 °F 69% 30.10 in 10.0 mi WNW 6.9 mph - N/A   Mostly Cloudy
1:39 PM 74.5 °F 63.1 °F 68% 30.10 in 10.0 mi WNW 5.8 mph - N/A   Mostly Cloudy
1:58 PM 75.4 °F 63.1 °F 66% 30.10 in 10.0 mi WNW 6.9 mph - N/A   Scattered Clouds
2:16 PM 74.5 °F 63.5 °F 68% 30.10 in 10.0 mi West 9.2 mph - N/A   Mostly Cloudy
2:35 PM 74.1 °F 63.9 °F 70% 30.10 in 10.0 mi West 8.1 mph - N/A   Overcast
2:55 PM 74.8 °F 63.7 °F 68% 30.09 in 10.0 mi West 6.9 mph - N/A   Mostly Cloudy
3:19 PM 75.9 °F 63.3 °F 65% 30.08 in 10.0 mi WNW 5.8 mph - N/A   Mostly Cloudy
3:37 PM 76.1 °F 63.9 °F 66% 30.08 in 10.0 mi WSW 10.4 mph - N/A   Mostly Cloudy
3:55 PM 75.6 °F 63.9 °F 67% 30.08 in 10.0 mi West 8.1 mph - N/A   Overcast
4:15 PM 75.6 °F 64.2 °F 68% 30.07 in 10.0 mi WSW 6.9 mph 16.1 mph N/A   Mostly Cloudy
4:35 PM 76.8 °F 64.9 °F 67% 30.06 in 10.0 mi WSW 6.9 mph 16.1 mph N/A   Mostly Cloudy
4:40 PM 77.0 °F 64.6 °F 65% 30.06 in 10.0 mi West 9.2 mph - N/A   Scattered Clouds
4:58 PM 76.3 °F 65.3 °F 69% 30.06 in 10.0 mi WSW 8.1 mph - N/A   Mostly Cloudy
5:16 PM 76.6 °F 62.6 °F 62% 30.06 in 10.0 mi West 9.2 mph 20.7 mph N/A   Scattered Clouds
5:35 PM 75.9 °F 63.7 °F 66% 30.06 in 10.0 mi WSW 8.1 mph - N/A   Scattered Clouds
5:55 PM 77.0 °F 63.3 °F 63% 30.06 in 10.0 mi WNW 12.7 mph 18.4 mph N/A   Scattered Clouds
5:56 PM 76.8 °F 63.3 °F 63% 30.06 in 10.0 mi WNW 12.7 mph 18.4 mph N/A   Scattered Clouds
6:19 PM 76.1 °F 63.3 °F 64% 30.07 in 10.0 mi West 10.4 mph 18.4 mph N/A   Mostly Cloudy
6:37 PM 75.9 °F 63.7 °F 66% 30.06 in 10.0 mi West 10.4 mph 16.1 mph N/A   Scattered Clouds
6:55 PM 75.4 °F 63.9 °F 67% 30.06 in 10.0 mi West 10.4 mph - N/A   Scattered Clouds
7:15 PM 74.5 °F 63.3 °F 68% 30.06 in 10.0 mi WNW 9.2 mph - N/A   Scattered Clouds
7:16 PM 74.5 °F 63.3 °F 68% 30.06 in 10.0 mi WNW 9.2 mph - N/A   Scattered Clouds
7:35 PM 72.9 °F 63.0 °F 71% 30.07 in 10.0 mi WNW 8.1 mph - N/A   Scattered Clouds
7:58 PM 71.1 °F 63.5 °F 77% 30.06 in 10.0 mi West 3.5 mph - N/A   Clear
8:16 PM 68.9 °F 62.8 °F 81% 30.07 in 10.0 mi West 4.6 mph - N/A   Clear
8:35 PM 68.0 °F 62.6 °F 83% 30.07 in 10.0 mi WNW 4.6 mph - N/A   Clear
8:36 PM 68.0 °F 62.6 °F 83% 30.07 in 10.0 mi WNW 4.6 mph - N/A   Clear
8:55 PM 67.1 °F 62.2 °F 84% 30.08 in 10.0 mi WNW 3.5 mph - N/A   Clear
8:56 PM 66.9 °F 62.2 °F 85% 30.08 in 10.0 mi WNW 3.5 mph - N/A   Clear
9:19 PM 67.1 °F 63.1 °F 87% 30.09 in 10.0 mi Calm Calm - N/A   Scattered Clouds
9:37 PM 64.9 °F 62.6 °F 92% 30.09 in 10.0 mi Calm Calm - N/A   Scattered Clouds
9:55 PM 63.9 °F 61.7 °F 93% 30.10 in 10.0 mi Calm Calm - N/A   Scattered Clouds
9:56 PM 63.9 °F 61.9 °F 93% 30.10 in 10.0 mi Calm Calm - N/A   Scattered Clouds
10:15 PM 63.9 °F 62.2 °F 94% 30.10 in 7.0 mi Calm Calm - N/A   Clear
10:16 PM 64.0 °F 62.4 °F 94% 30.10 in 7.0 mi Calm Calm - N/A   Clear
10:35 PM 62.8 °F 61.3 °F 95% 30.09 in 10.0 mi Calm Calm - N/A   Clear
10:58 PM 62.8 °F 61.5 °F 96% 30.10 in 10.0 mi Calm Calm - N/A   Clear
11:16 PM 61.5 °F 60.4 °F 96% 30.09 in 10.0 mi Calm Calm - N/A   Clear
11:35 PM 62.1 °F 61.0 °F 96% 30.09 in 2.5 mi Calm Calm - N/A   Clear
11:36 PM 62.1 °F 61.0 °F 96% 30.09 in 2.5 mi Calm Calm - N/A   Clear
11:55 PM 59.9 °F 59.0 °F 97% 30.08 in 5.0 mi Calm Calm - N/A   Scattered Clouds